This is the latest recevied weather packets stored in our database for station/object HB4LO-13. If no packets are shown the sender has not sent any weather packets the latest 1 day(s).
| Time | Temp. | Humidity | Pressure | Rain* | Wind** | Luminosity | Snow |
|---|---|---|---|---|---|---|---|
| 1777991826 | 15.56° C | 62% | - | 0 mm | 1.34 m/s, 175° | - | - |
| 1777991766 | 15.56° C | 62% | - | 0 mm | 1.34 m/s, 167° | - | - |
| 1777991706 | 15.56° C | 62% | - | 0 mm | 1.79 m/s, 181° | - | - |
| 1777991646 | 15.56° C | 62% | - | 0 mm | 2.68 m/s, 173° | - | - |
| 1777991586 | 15.56° C | 62% | - | 0 mm | 1.79 m/s, 171° | - | - |
| 1777991526 | 15.56° C | 62% | - | 0 mm | 1.34 m/s, 184° | - | - |
| 1777991466 | 15.56° C | 62% | - | 0 mm | 1.34 m/s, 171° | - | - |
| 1777991406 | 15.56° C | 62% | - | 0 mm | 1.79 m/s, 174° | - | - |
| 1777991346 | 15.56° C | 62% | - | 0 mm | 1.79 m/s, 167° | - | - |
| 1777991286 | 15.56° C | 62% | - | 0 mm | 1.79 m/s, 173° | - | - |
| 1777991226 | 15.56° C | 62% | - | 0 mm | 1.79 m/s, 192° | - | - |
| 1777991166 | 15.56° C | 62% | - | 0 mm | 1.79 m/s, 190° | - | - |
| 1777991106 | 16.11° C | 62% | - | 0 mm | 1.79 m/s, 171° | - | - |
| 1777991046 | 15.56° C | 62% | - | 0 mm | 1.79 m/s, 187° | - | - |
| 1777990986 | 16.11° C | 62% | - | 0 mm | 1.34 m/s, 186° | - | - |
| 1777990926 | 16.11° C | 62% | - | 0 mm | 2.24 m/s, 189° | - | - |
| 1777990866 | 16.11° C | 62% | - | 0 mm | 2.24 m/s, 186° | - | - |
| 1777990806 | 16.11° C | 62% | - | 0 mm | 1.34 m/s, 183° | - | - |
| 1777990746 | 16.11° C | 62% | - | 0 mm | 1.34 m/s, 153° | - | - |
| 1777990686 | 16.11° C | 62% | - | 0 mm | 2.24 m/s, 185° | - | - |
| 1777990626 | 16.11° C | 62% | - | 0 mm | 1.79 m/s, 152° | - | - |
| 1777990566 | 16.11° C | 62% | - | 0 mm | 0.89 m/s, 166° | - | - |
| 1777990506 | 16.11° C | 62% | - | 0 mm | 1.79 m/s, 169° | - | - |
| 1777990446 | 16.11° C | 62% | - | 0 mm | 1.79 m/s, 169° | - | - |
| 1777990386 | 16.11° C | 62% | - | 0 mm | 1.34 m/s, 172° | - | - |
* Rain latest hour (hover to see other rain measurements)
** Current wind speed in m/s (hover to see current wind gust speed)